Theta_e
310 311 311 312 311 312 311 311 311 310 311 310 308 311 311 319 308 304 317 319 315 316 315 317 320 324 327 320 322 326 329 326 333 343 337 334 333 342 341 350 352 353 348 346 346 347 348 348 348 348 347 347 349 345 345 344 340 345 344 343 344 344 346 346 346 346 346 344 345 345 344 344 343 343 343 343 343 342 342 340 338 336 336 336 337 338 338
310 310 311 312 311 311 312 311 311 311 311 310 310 310 311 311 317 317 320 320 316 314 316 317 322 325 325 324 330 332 328 324 338 334 333 324 331 337 344 347 349 349 348 349 347 347 347 348 349 347 347 347 346 344 342 340 346 346 346 345 344 345 344 345 346 345 346 346 346 346 343 342 343 343 341 342 340 341 341 339 340 340 341 340 335 334 336
309 311 312 312 311 310 309 311 311 311 311 311 311 311 310 313 312 312 312 321 319 319 329 324 327 336 331 330 323 323 333 329 324 326 325 330 330 335 343 350 351 353 355 353 350 348 348 349 350 348 348 348 345 337 337 337 344 342 345 346 346 346 346 346 346 345 345 345 345 344 343 342 343 342 342 342 342 342 342 342 342 342 339 338 333 334 334
306 309 309 311 311 310 309 309 310 311 310 309 310 310 312 311 313 317 314 314 314 318 325 323 327 328 327 326 328 330 330 325 328 331 331 332 337 341 343 347 350 351 350 352 350 349 349 350 351 349 349 347 342 338 338 339 338 341 340 345 345 347 347 347 346 345 344 345 344 343 343 343 343 343 342 342 342 342 342 341 342 342 338 338 338 337 336
304 309 310 310 310 309 305 306 308 311 312 312 313 313 315 315 315 316 309 310 318 326 324 322 324 321 325 325 323 326 330 331 330 332 333 333 335 341 345 350 351 351 347 348 350 350 350 351 351 351 350 344 343 342 341 341 339 336 339 344 346 347 347 346 345 344 345 344 343 343 343 343 343 343 343 342 342 341 340 342 342 341 341 338 337 339 338
305 308 309 310 306 299 301 313 315 314 311 312 310 310 312 316 321 318 317 318 324 321 320 319 321 321 324 328 332 333 331 329 335 331 332 331 331 334 336 339 344 349 349 348 352 355 355 352 351 351 345 341 341 342 342 341 339 340 343 344 347 347 347 346 345 344 343 343 342 342 343 343 343 343 342 341 341 340 341 343 341 339 338 337 338 339 340
304 308 309 303 298 300 314 315 316 316 315 314 312 313 314 315 322 319 316 318 320 321 321 322 322 325 328 328 331 324 325 337 334 335 331 337 338 340 342 345 342 351 356 357 354 356 346 342 345 347 341 339 341 341 342 339 338 343 345 345 346 346 346 346 345 344 343 342 342 342 343 343 343 342 342 342 342 341 340 340 339 340 338 339 339 337 337
308 305 304 296 298 312 318 318 317 318 316 315 315 313 315 316 316 320 316 319 321 326 323 322 327 331 325 325 333 335 329 327 328 325 327 329 332 336 341 348 354 360 357 359 356 357 352 348 349 343 340 339 339 340 338 335 337 344 346 345 344 345 345 345 344 343 342 341 342 342 342 342 342 341 342 343 342 344 343 339 338 337 338 338 336 335 336
302 304 303 303 318 313 314 312 314 316 315 315 313 308 313 321 320 318 318 320 321 321 322 322 323 326 322 323 324 325 323 330 328 327 329 328 333 338 347 344 350 362 362 360 358 361 357 351 344 342 339 339 337 335 334 334 339 343 345 344 343 344 344 344 343 343 341 341 341 342 342 341 341 340 342 342 343 345 341 338 335 335 336 334 335 335 334
311 303 301 302 302 300 306 317 319 320 320 319 319 316 312 324 319 319 321 323 324 322 321 322 325 326 319 316 317 324 325 326 332 332 332 331 335 343 344 354 352 360 360 359 362 358 356 348 343 342 340 336 335 334 332 333 339 341 342 342 343 344 344 344 344 343 343 342 342 342 341 340 340 341 340 341 341 344 340 336 333 332 334 334 334 335 334
308 305 301 301 300 305 315 316 318 320 321 320 319 313 307 321 321 321 320 319 321 322 320 324 326 319 313 314 320 326 329 328 331 331 332 331 337 344 346 348 350 352 358 359 356 360 355 347 345 343 340 339 336 335 334 335 339 340 342 343 343 344 345 346 345 344 343 343 342 341 341 340 339 339 340 340 342 344 339 336 335 337 335 333 332 333 330
306 305 302 300 306 305 314 317 317 319 322 321 317 302 305 320 320 320 322 319 319 323 328 323 322 318 313 314 324 325 328 328 329 337 338 343 343 346 351 350 355 358 360 360 357 355 353 351 347 344 340 340 339 338 338 339 339 342 343 344 346 347 347 346 345 344 343 344 344 341 341 342 343 341 341 339 338 337 338 336 334 335 334 332 330 330 329
305 304 304 306 309 319 317 317 319 320 321 317 306 299 311 322 325 325 326 321 322 326 325 323 316 323 325 326 331 328 327 327 331 335 335 340 342 347 345 348 352 355 356 357 354 354 354 353 345 342 341 339 339 342 344 342 342 343 346 348 349 349 349 345 344 344 343 344 343 342 342 342 341 340 339 338 339 339 336 335 336 335 334 332 330 331 331
305 305 303 304 309 319 319 321 320 321 315 305 308 318 327 330 325 326 321 321 323 324 324 322 324 325 325 325 325 326 325 326 335 332 331 333 334 340 348 353 353 353 351 355 353 350 354 350 344 341 341 342 343 346 346 345 347 352 355 353 351 350 349 346 345 344 342 343 343 343 344 346 344 344 343 343 340 337 337 336 335 333 333 333 331 329 330
307 307 305 303 296 320 320 317 318 322 316 322 323 326 324 322 327 323 325 323 326 326 326 326 330 327 324 324 324 324 329 334 336 336 338 341 339 339 350 351 352 350 351 350 347 346 343 343 348 349 348 349 350 350 349 352 353 356 357 354 354 351 349 347 346 346 345 345 344 344 342 343 342 338 340 339 340 339 338 333 335 332 330 325 325 327 328
304 304 301 300 316 319 322 323 314 320 325 328 329 326 322 325 324 325 324 330 329 326 326 325 326 327 328 332 332 333 330 340 338 338 342 343 341 344 350 350 350 349 352 350 344 341 341 345 347 346 347 352 351 352 352 349 351 352 355 352 351 351 350 347 346 346 345 345 345 344 344 342 338 335 336 336 334 332 334 332 329 329 327 328 330 328 325
312 309 312 319 322 321 323 324 321 324 326 327 328 326 324 325 325 329 327 328 329 329 331 331 330 326 328 330 330 329 330 334 338 337 341 341 342 342 341 345 350 349 348 350 341 341 341 341 340 346 347 345 339 346 350 356 352 351 348 349 350 350 350 348 348 344 343 339 336 339 336 338 336 335 333 333 330 330 331 328 326 328 330 328 328 328 328
321 322 320 321 322 321 321 322 323 322 323 325 326 326 325 327 327 328 328 329 331 331 333 329 331 330 331 331 329 330 330 333 343 343 343 343 341 337 338 349 351 347 345 341 341 340 348 353 354 355 352 348 345 349 350 351 352 350 350 347 342 341 344 346 343 343 338 336 338 336 336 337 336 334 332 332 331 333 331 329 329 332 330 328 328 327 328
311 305 324 317 318 320 320 319 321 323 323 323 324 326 327 326 327 327 329 331 330 329 332 331 332 330 330 330 332 337 339 341 345 341 342 343 339 337 334 347 346 342 340 339 338 338 346 349 348 347 347 347 351 352 350 346 348 349 349 350 347 347 347 343 340 337 334 333 333 336 337 335 338 336 333 335 331 330 330 331 334 333 330 329 329 326 328
312 313 319 320 319 321 322 321 319 319 322 323 323 325 327 328 328 328 328 330 329 329 326 331 333 330 330 332 337 335 335 343 342 342 340 340 341 345 344 346 343 335 337 334 338 342 346 345 347 342 341 341 344 344 341 339 337 346 348 347 346 346 345 343 341 340 337 337 337 334 332 333 332 333 336 334 331 329 329 331 331 329 327 328 326 324 328
317 320 322 320 320 319 319 320 321 322 323 323 322 323 323 323 323 324 326 327 328 329 328 332 332 330 332 336 337 334 334 335 334 334 336 338 339 339 341 344 347 341 338 335 341 340 343 345 344 342 339 333 330 338 339 338 341 340 343 343 344 340 338 339 338 341 338 335 336 335 334 332 320 315 315 323 328 321 314 315 318 320 322 322 322 321 321
310 312 317 320 312 313 317 317 319 322 325 324 322 322 322 322 322 323 322 324 327 329 332 332 331 336 338 337 338 332 334 335 334 335 335 335 334 336 338 342 345 347 347 346 344 342 341 342 341 341 338 338 332 326 333 337 340 341 341 340 337 335 333 333 333 334 334 332 332 332 330 338 325 314 306 299 307 321 315 306 301 301 306 314 314 319 321
309 315 318 321 321 320 318 318 320 322 325 324 321 321 321 322 322 322 322 322 323 326 329 332 332 336 337 337 334 333 335 337 338 336 337 334 334 340 344 346 346 345 345 344 342 341 341 341 339 338 338 335 336 334 340 340 337 339 337 337 335 331 331 328 332 332 334 331 332 335 329 330 332 322 316 309 296 297 302 301 298 294 294 295 299 304 315
313 316 316 318 317 314 318 319 321 321 326 322 320 321 322 322 322 321 321 323 323 324 327 329 332 334 335 336 334 335 336 337 339 339 338 339 340 342 342 342 342 341 341 341 340 339 340 340 338 339 333 334 337 331 338 336 336 339 334 340 336 332 331 330 339 338 331 333 331 331 330 331 330 330 323 318 312 297 295 298 297 294 294 294 295 296 298
311 316 315 315 315 316 318 319 320 321 325 322 320 320 320 320 320 321 321 324 323 321 323 325 329 332 332 334 335 334 337 338 338 338 339 339 339 338 338 337 339 340 340 340 340 341 339 339 337 336 337 336 336 332 337 334 335 333 334 334 331 330 334 337 332 332 331 333 333 331 330 330 332 329 328 325 318 314 309 296 294 294 294 294 294 295 295
315 314 314 315 315 315 317 317 318 321 320 320 320 319 321 323 322 321 321 325 321 321 321 322 323 328 329 332 335 336 338 337 338 339 337 335 334 336 337 335 337 341 340 340 339 338 335 336 336 333 333 332 334 334 329 335 335 334 333 333 333 333 330 331 333 334 329 332 329 330 333 332 328 327 327 326 324 319 315 313 311 304 298 295 293 295 295
314 314 312 310 309 311 316 315 314 317 318 318 318 319 319 320 322 320 319 319 320 320 320 322 325 331 332 331 334 332 335 335 332 329 329 328 327 327 333 337 338 338 337 337 338 337 335 336 334 333 333 332 335 334 330 333 336 333 332 332 331 331 331 330 328 330 326 330 329 328 330 330 330 329 328 328 325 322 320 317 316 315 314 312 300 294 305
312 311 311 307 309 312 315 317 317 316 316 317 318 318 318 318 317 316 315 316 318 320 320 322 323 327 331 332 331 332 333 334 331 331 329 329 327 330 341 338 335 336 334 335 335 336 333 334 330 331 331 333 335 333 330 334 334 332 332 330 329 329 332 330 330 331 331 332 331 329 328 330 327 328 326 325 324 325 323 323 321 317 316 316 315 308 299
311 312 316 316 316 316 316 316 317 317 318 319 319 319 318 317 317 316 316 316 317 319 319 320 323 329 326 329 331 332 331 329 330 331 330 332 332 331 336 336 335 333 334 333 330 333 334 334 334 333 334 334 332 332 331 332 333 330 330 328 330 330 332 332 331 331 330 329 330 331 326 326 326 327 324 323 323 321 321 320 321 321 318 316 315 313 309
314 316 316 316 316 314 314 313 314 315 315 318 318 319 318 317 315 315 316 317 318 318 320 321 324 324 325 327 333 332 332 329 329 329 330 330 333 337 334 336 335 332 332 330 332 332 333 333 332 333 333 331 329 331 328 332 331 332 331 330 331 330 331 331 331 330 328 329 326 324 327 325 327 325 323 322 321 320 318 317 317 317 315 313 313 311 309
314 316 315 314 314 314 312 314 316 317 318 319 319 317 316 317 315 315 316 318 319 317 320 321 324 327 329 327 327 330 329 330 331 330 330 335 335 334 334 334 331 329 329 330 332 331 332 332 331 332 334 331 328 330 330 330 331 331 332 331 328 321 320 322 324 328 325 326 326 325 325 324 323 322 320 319 318 317 317 316 315 312 312 310 309 308 308
314 314 313 313 314 315 317 319 319 318 318 318 317 315 315 315 314 314 314 315 317 318 321 322 324 327 330 332 332 331 330 331 331 332 332 334 334 337 337 335 333 332 330 333 332 332 333 333 332 333 335 332 329 329 328 328 331 329 328 329 328 327 322 319 324 324 325 327 325 324 324 322 321 320 318 317 316 315 314 313 311 311 310 310 308 306 307
313 312 313 314 315 315 315 316 315 315 316 316 316 317 317 316 316 316 316 318 318 320 320 323 325 325 328 332 331 330 332 336 335 335 332 333 332 334 334 332 332 334 335 335 334 333 332 330 330 332 333 331 331 330 329 328 329 329 328 327 327 326 324 322 322 324 324 324 323 323 322 321 320 319 317 317 316 315 314 313 311 312 311 310 307 306 306
313 313 313 314 313 311 311 312 314 315 316 316 316 316 316 317 317 317 317 319 318 318 320 322 325 325 324 328 332 331 333 332 331 328 330 332 332 333 334 333 334 333 333 333 332 331 331 331 330 330 330 330 330 329 328 328 328 329 328 327 327 324 324 324 323 323 323 322 322 322 321 320 319 317 316 316 315 315 314 314 313 312 310 309 307 306 302
314 314 314 313 314 313 313 312 312 312 313 313 314 316 317 317 317 317 319 319 319 319 321 322 324 324 322 326 332 331 328 329 331 325 324 326 328 329 332 332 332 332 330 330 331 330 330 329 330 329 329 327 327 327 327 328 327 327 328 327 326 324 324 323 323 323 321 321 321 320 319 318 317 317 317 317 316 316 314 314 313 311 310 309 307 308 306
314 314 314 315 316 316 315 314 313 313 312 313 313 314 315 316 317 316 316 316 317 318 319 321 322 322 321 322 328 327 327 327 330 327 326 329 330 332 331 330 329 327 327 327 328 328 329 329 330 329 329 327 325 325 327 326 326 326 327 326 324 323 323 323 323 322 321 321 319 318 318 318 317 316 316 316 315 314 314 313 313 312 310 309 308 307 307
314 314 314 314 315 315 315 316 316 316 315 315 315 315 316 317 317 319 318 317 316 317 319 320 320 319 318 321 321 325 329 328 328 327 329 329 330 330 328 326 327 325 324 322 324 327 327 325 325 325 326 326 324 326 327 327 327 325 325 323 323 322 321 321 321 320 319 320 318 318 317 317 316 315 315 313 314 314 312 312 311 312 311 309 309 307 306
313 313 314 314 314 314 315 315 316 316 316 316 316 317 318 318 319 319 319 318 318 319 321 321 320 321 324 328 326 328 327 327 329 328 327 329 329 324 324 324 323 323 320 323 326 326 324 325 323 324 325 325 325 325 327 326 325 323 322 322 321 320 320 321 320 319 317 317 318 317 315 314 314 314 313 313 314 313 312 310 310 310 309 308 308 307 306
313 314 314 314 315 315 315 316 316 316 315 315 315 316 317 318 319 319 319 319 320 321 320 323 322 322 323 323 328 328 328 328 327 327 326 325 325 324 321 326 325 327 328 325 325 324 323 324 325 325 324 323 324 322 324 322 321 322 322 321 319 319 318 318 317 317 317 318 316 315 315 314 314 314 314 314 314 311 311 309 309 308 308 309 308 306 305
313 313 313 313 313 313 314 314 314 315 315 316 316 316 317 318 318 319 319 320 323 326 323 324 324 323 323 326 324 325 327 326 325 325 324 323 324 322 321 323 324 325 325 324 324 323 323 322 323 324 328 325 322 322 322 320 320 320 320 318 318 317 316 317 316 315 314 314 314 313 312 314 316 313 312 312 312 310 309 309 308 307 306 306 307 306 306
312 313 313 313 313 313 313 314 314 317 317 318 317 319 320 320 320 319 317 319 322 327 328 327 325 325 326 326 325 323 324 324 324 324 325 324 322 323 319 317 323 323 322 322 323 323 325 323 326 325 327 326 320 321 318 320 318 317 318 317 315 315 315 314 314 313 313 313 313 312 311 312 312 312 311 310 309 309 310 308 308 306 306 306 306 305 305
313 313 314 314 314 314 315 315 315 315 316 317 318 319 319 320 321 321 323 324 325 325 325 327 326 327 325 325 322 321 321 322 323 322 321 320 320 319 317 319 322 322 323 323 323 321 320 321 320 320 324 319 318 318 317 317 317 316 316 316 315 315 315 314 313 313 314 313 312 312 312 311 310 310 310 309 308 308 307 307 306 306 306 306 305 305 304
314 313 313 314 315 316 316 316 316 317 317 318 318 320 322 323 322 322 323 319 319 320 322 323 324 325 323 321 320 319 319 321 322 321 321 321 322 323 322 320 322 321 322 321 319 319 318 318 318 315 318 317 316 316 315 315 314 314 313 314 316 314 313 313 313 313 312 312 311 310 310 310 309 309 308 308 308 307 307 306 305 306 305 305 305 304 304
315 314 315 315 315 316 317 317 316 317 317 317 319 321 323 322 321 320 319 320 320 322 321 321 320 320 321 320 320 320 320 321 321 322 320 320 319 321 323 324 321 321 321 319 318 317 316 316 314 314 315 314 313 312 311 310 309 311 312 312 312 312 312 311 311 312 311 311 310 309 309 310 308 307 307 307 307 306 306 306 306 305 304 304 304 304 304
316 316 316 316 316 316 315 315 316 317 318 319 319 320 323 322 322 321 319 318 320 320 320 321 320 320 318 318 319 320 322 322 320 319 316 315 314 316 320 321 324 322 320 320 318 316 314 313 312 312 310 308 308 308 308 308 309 310 311 310 311 311 311 310 309 309 309 309 309 309 309 308 307 308 308 306 306 305 305 305 305 304 305 303 304 304 304
316 316 316 316 316 316 316 317 318 318 319 317 317 319 320 320 319 320 320 318 318 320 322 319 320 320 319 318 319 321 320 321 322 324 324 323 320 320 323 320 323 319 320 319 315 312 309 311 311 309 308 307 307 307 308 310 310 308 308 308 308 309 309 308 308 309 309 309 308 308 307 307 307 305 306 307 307 305 305 306 305 304 304 304 304 304 304
316 317 317 317 317 318 318 318 318 318 317 318 316 316 320 320 319 319 320 320 319 320 320 322 319 320 321 320 320 318 317 317 319 321 321 321 321 320 320 319 318 319 319 316 312 310 308 307 308 308 307 307 306 307 309 309 309 308 307 307 306 307 307 308 308 308 309 309 309 308 308 307 306 306 306 305 304 305 306 304 303 303 304 305 304 304 304
317 319 321 320 319 320 319 319 317 316 316 317 317 321 320 320 320 321 321 321 322 321 321 321 322 322 321 320 320 320 320 317 313 315 319 318 318 318 317 317 317 316 315 315 313 311 312 311 310 309 307 307 308 308 309 307 307 307 306 306 306 305 305 306 306 306 307 308 308 308 306 306 306 305 305 304 304 304 304 303 303 303 303 303 303 303 303
316 316 317 318 318 319 318 317 317 316 316 317 318 318 319 319 319 318 320 321 321 321 322 321 320 321 322 324 322 322 321 321 324 319 319 319 318 317 316 317 319 316 312 310 308 308 310 308 309 309 309 308 307 308 308 308 306 306 306 305 304 304 305 305 305 305 306 306 306 306 306 305 304 305 304 304 304 303 303 303 303 304 303 304 303 304 303
316 316 316 317 318 318 317 316 315 316 318 318 318 319 321 323 319 319 321 320 320 321 321 321 321 325 323 321 321 322 323 322 321 322 321 318 318 318 314 313 313 314 315 312 311 308 313 308 309 308 308 308 308 308 308 309 308 308 305 306 305 304 304 304 304 304 305 306 305 305 304 304 304 304 305 304 304 304 304 303 304 304 303 303 304 303 303
317 317 316 318 317 318 318 319 319 319 318 318 318 320 319 319 318 319 317 317 320 317 317 318 319 320 321 322 320 321 322 321 320 320 319 317 318 316 314 313 312 312 313 313 312 308 307 306 305 306 307 307 307 308 308 308 307 307 307 305 305 304 303 303 303 304 304 305 305 304 304 304 304 304 304 303 303 303 303 303 303 303 303 303 303 304 303
315 319 322 320 321 321 320 321 320 321 321 321 320 318 320 318 318 316 318 318 319 317 316 317 315 318 319 320 319 320 320 320 318 318 317 317 315 314 314 314 311 311 311 312 313 311 308 307 307 307 308 307 308 308 310 308 307 306 306 307 307 304 305 305 304 303 304 304 304 304 303 303 303 303 303 303 303 303 303 303 303 303 303 303 303 303 303
Wind_Speed
16 20 21 18 14 15 15 16 17 19 20 21 21 12 15 8 8 9 5 11 13 12 14 13 12 9 7 7 1 4 5 6 5 3 4 7 9 9 10 9 10 7 9 12 14 15 15 14 14 14 12 11 9 11 8 7 9 8 9 7 5 5 5 5 4 4 4 4 4 4 4 4 4 4 4 3 3 4 4 5 6 7 6 6 5 6 6
16 20 23 21 21 17 18 18 17 18 19 20 20 21 19 16 9 9 7 9 11 8 10 11 6 1 5 5 4 3 5 7 4 6 6 10 7 11 11 11 11 11 12 12 14 15 14 15 14 14 13 12 11 9 9 10 8 7 5 8 8 7 7 6 5 5 4 4 4 4 4 5 5 4 4 4 5 4 5 6 5 6 6 5 7 7 5
18 21 21 19 18 18 17 18 21 21 21 20 20 20 20 19 17 18 12 9 4 5 4 8 5 5 6 5 2 5 4 5 7 8 10 7 8 7 12 12 12 11 9 9 11 12 13 14 15 14 12 13 12 13 11 10 8 5 4 6 8 7 7 7 7 6 6 6 5 5 5 5 4 5 5 5 5 5 5 6 6 5 6 7 7 5 6
13 13 13 16 19 20 21 21 21 19 17 16 14 13 11 14 10 3 4 3 6 6 6 6 5 6 7 4 5 5 5 7 6 6 6 7 4 4 4 12 11 9 10 9 11 14 16 16 16 14 14 14 14 13 13 10 8 8 8 9 9 8 7 7 7 8 7 7 7 7 6 6 6 6 5 5 6 6 5 6 6 6 5 5 4 5 5
12 14 19 23 23 17 15 19 22 19 17 16 16 16 15 14 10 3 6 7 5 2 4 5 5 4 7 4 3 2 3 2 4 5 6 8 7 5 5 4 11 13 15 15 16 16 14 13 14 14 12 12 9 9 10 11 11 10 10 10 9 9 8 8 8 8 7 8 8 7 7 7 6 6 6 6 6 6 6 6 5 5 4 4 5 4 5
9 15 18 13 8 9 10 7 11 13 15 16 19 17 18 12 5 2 1 3 6 5 2 1 2 3 4 4 4 2 3 4 4 7 7 8 8 8 8 7 9 13 12 12 12 15 13 4 6 9 12 12 10 10 11 12 10 9 10 9 10 10 9 9 9 9 8 8 8 8 7 7 6 6 6 6 6 6 5 4 4 5 5 5 5 5 3
10 10 10 11 14 11 8 12 12 16 17 18 19 19 18 9 2 3 6 4 3 2 3 3 0 1 3 4 4 8 7 4 4 4 6 6 6 6 6 6 8 7 12 12 14 13 11 10 14 8 8 10 10 7 5 5 2 8 10 10 10 10 10 10 10 10 10 10 9 8 7 6 6 6 6 6 6 5 5 5 5 4 5 4 3 4 4
9 10 9 10 12 9 7 8 8 16 18 15 12 11 14 8 6 8 4 5 4 4 5 3 7 5 6 5 3 4 8 9 7 8 7 7 8 8 6 5 5 5 8 9 10 12 16 15 12 14 13 10 8 7 9 5 11 9 10 10 11 10 11 11 11 11 11 10 9 8 7 6 6 6 7 7 6 5 5 5 5 5 4 4 5 5 6
12 9 10 13 3 6 10 12 10 7 6 8 8 9 8 9 5 2 1 4 5 6 5 3 3 4 0 2 4 10 12 9 9 7 6 8 6 5 4 6 5 4 6 7 9 8 13 15 13 14 13 10 13 8 1 10 11 10 10 11 11 11 12 12 12 11 10 9 8 7 7 7 7 7 6 6 6 5 6 5 6 6 5 6 6 6 6
7 10 11 11 10 12 8 4 9 9 13 10 10 8 10 5 11 11 6 5 4 4 1 2 5 5 2 5 7 7 5 7 4 4 6 5 2 4 5 3 5 5 5 6 7 8 14 15 15 14 14 15 9 10 12 12 13 12 10 11 10 10 10 10 9 9 8 8 7 7 7 7 6 5 5 4 5 4 6 7 7 7 6 5 6 6 7
5 9 10 10 10 7 3 7 7 11 12 13 10 9 9 2 6 1 2 6 6 4 2 3 6 4 4 5 4 7 6 4 5 6 4 6 5 4 5 7 7 8 6 7 9 9 14 15 15 16 17 15 11 11 11 15 14 12 11 10 10 10 9 8 7 8 8 8 7 7 7 7 6 6 5 5 4 4 5 6 6 5 6 6 6 7 9
9 10 11 11 7 7 3 4 8 10 10 6 5 11 8 1 6 4 5 9 6 6 6 7 4 3 4 5 2 4 1 4 6 4 1 2 6 5 5 7 6 6 6 7 9 11 13 14 14 17 16 13 13 12 14 14 12 11 11 11 9 8 8 8 7 7 7 7 7 6 7 6 5 4 4 4 4 4 4 5 6 6 6 6 8 7 8
12 13 11 9 7 3 2 8 2 4 11 13 12 9 1 1 10 6 1 1 5 4 2 3 5 4 4 2 5 3 4 7 3 4 2 5 2 3 8 8 9 7 8 7 9 11 11 11 13 15 13 12 13 12 9 9 10 9 9 8 8 7 7 7 7 7 7 7 8 8 6 5 4 3 3 4 3 3 5 6 5 6 7 7 8 7 7
12 11 13 11 7 2 2 9 12 8 8 10 5 2 5 5 7 5 3 4 2 2 2 1 3 3 3 5 7 7 10 9 7 6 4 4 2 4 6 8 9 9 10 8 9 9 9 10 12 10 9 10 9 8 7 7 7 4 4 6 7 6 7 7 7 8 7 7 7 6 5 3 2 3 3 3 3 4 5 7 8 8 8 7 9 12 12
10 9 7 4 8 1 5 5 3 8 5 3 2 3 5 4 5 4 8 8 8 9 4 3 6 6 9 9 11 13 10 9 6 5 8 4 5 9 8 10 11 11 10 11 11 11 11 10 7 2 6 5 3 4 5 4 2 2 1 1 4 5 5 6 6 6 6 7 5 4 4 3 3 1 2 3 3 5 4 7 9 6 10 9 7 6 6
6 7 4 1 7 2 7 7 5 7 7 5 0 2 3 6 5 7 3 3 4 5 2 5 6 7 8 7 8 11 5 6 4 4 4 5 2 5 10 13 13 13 10 10 11 11 9 8 8 9 7 4 4 3 3 1 1 2 2 2 1 2 4 5 5 5 4 3 2 1 2 4 5 1 2 3 5 5 5 7 10 7 1 4 2 2 2
3 2 1 0 5 8 9 10 9 5 7 6 5 6 6 3 3 3 4 5 6 7 6 6 6 8 7 8 9 10 8 5 6 6 4 6 4 2 12 10 11 11 12 9 10 11 10 11 8 5 3 3 1 3 5 4 3 1 0 1 2 2 2 3 3 1 6 8 7 2 4 1 1 0 1 0 3 4 2 2 7 8 6 4 3 1 2
4 3 5 5 5 8 7 5 6 9 10 10 9 10 8 7 6 3 4 6 6 7 7 7 7 8 8 8 8 10 9 6 6 8 6 4 8 4 14 9 8 9 11 10 7 8 7 9 7 6 5 6 4 4 4 2 2 2 2 1 1 2 4 3 3 4 4 4 2 3 1 2 3 3 4 2 3 5 5 7 7 5 4 4 4 2 1
5 1 1 7 3 6 6 10 11 9 9 10 9 9 7 4 4 4 4 4 4 6 4 6 7 8 9 10 8 6 7 6 4 10 6 4 8 8 15 9 7 10 10 9 8 1 7 6 7 7 7 6 6 5 5 3 2 0 2 3 3 4 4 2 1 2 3 1 5 8 5 3 5 5 3 2 1 4 7 8 4 3 3 4 2 3 2
3 2 9 3 6 9 8 6 7 7 8 10 9 6 5 6 7 6 7 6 6 6 7 5 7 8 6 7 9 11 7 9 8 9 10 11 9 4 6 8 8 9 9 11 10 9 6 4 4 5 6 7 6 5 5 4 3 2 4 4 4 4 5 4 5 6 6 9 6 3 5 2 1 1 1 4 3 5 5 3 3 3 3 4 4 4 2
3 7 11 3 5 12 9 10 8 6 6 6 7 6 7 7 9 9 9 9 9 9 10 7 7 10 3 4 4 6 11 8 9 10 8 10 9 8 11 6 4 6 8 10 11 9 7 6 7 5 4 2 2 3 6 6 6 7 6 5 4 5 4 4 4 2 3 0 3 1 2 6 7 6 4 4 3 6 6 4 4 3 4 4 5 5 3
5 5 4 7 3 5 3 7 6 6 6 5 5 6 7 9 9 10 10 10 9 10 11 8 6 6 6 5 3 7 7 8 7 6 5 9 4 9 6 8 6 9 12 13 11 10 7 6 6 6 5 4 1 2 6 8 6 2 3 2 4 5 4 5 4 4 2 1 3 4 2 1 5 6 10 10 8 5 5 7 10 11 9 6 4 4 4
3 5 5 6 4 8 4 4 3 3 4 4 4 6 7 8 8 9 10 9 10 9 9 9 6 5 5 3 1 4 7 8 8 7 9 8 9 11 7 4 6 8 10 11 11 9 7 5 5 6 5 6 3 6 5 5 5 3 2 3 3 4 4 2 5 4 4 3 4 3 2 2 2 4 4 7 13 13 11 7 8 8 9 9 11 12 7
11 7 6 6 6 6 3 4 3 3 4 4 4 6 7 8 8 9 9 8 9 8 7 8 4 3 2 3 3 3 5 8 9 8 8 9 8 6 7 7 8 8 7 8 8 9 7 6 6 5 6 6 2 4 5 4 2 2 1 0 2 3 4 1 4 1 2 2 4 5 6 7 6 6 5 5 5 8 7 7 8 10 10 10 10 11 12
7 5 7 6 7 7 6 6 5 5 6 5 5 7 8 9 9 9 9 8 8 10 8 7 6 1 1 2 3 2 6 8 8 9 11 9 7 7 8 11 11 12 10 9 8 7 7 6 5 4 6 6 4 5 3 3 3 1 1 1 4 4 3 1 2 2 3 2 1 2 2 2 1 3 3 4 5 4 4 4 6 7 7 8 7 9 9
6 5 5 3 5 7 7 8 5 8 10 6 7 8 9 8 8 9 8 8 9 10 10 8 6 5 3 3 4 3 4 5 5 2 3 4 4 5 8 10 9 8 9 8 7 7 8 7 6 6 5 6 6 4 3 4 3 2 1 2 2 3 2 2 3 2 3 3 3 1 4 3 3 2 2 4 4 5 6 4 3 3 4 6 4 4 3
7 7 7 6 5 4 4 7 7 11 10 9 8 7 9 9 8 8 10 11 11 10 10 10 8 5 5 2 5 1 6 8 10 9 6 3 4 10 9 6 7 8 8 8 6 7 8 6 6 5 4 6 6 4 2 4 3 2 1 1 1 1 4 1 2 3 3 2 5 3 2 0 2 2 1 3 5 6 4 5 4 4 4 3 3 6 3
4 6 4 5 4 4 7 8 9 10 10 9 8 9 8 8 10 10 11 11 10 9 9 10 8 6 3 6 5 6 6 6 7 7 5 7 6 9 6 7 9 8 8 7 7 6 6 5 6 6 5 5 4 2 3 5 3 2 2 1 2 1 3 2 1 2 3 4 3 3 2 1 0 1 2 2 1 2 1 2 5 6 4 4 4 6 8
3 2 4 5 6 5 5 6 7 6 7 7 8 7 8 9 9 9 9 9 9 9 9 10 11 6 5 3 3 4 5 6 6 6 5 5 9 8 8 7 6 8 7 6 7 6 5 5 5 6 6 4 4 4 3 4 4 3 3 2 3 1 2 1 1 1 2 3 2 1 2 1 1 1 1 2 3 4 3 3 2 5 4 5 5 3 2
6 7 5 4 5 7 7 6 6 8 8 7 8 8 9 10 10 10 10 10 9 10 9 10 10 9 4 3 5 6 7 9 7 7 6 6 5 8 8 6 6 6 5 6 5 5 5 5 4 5 6 5 5 4 3 3 3 3 2 2 4 3 2 1 2 3 2 1 3 3 1 2 2 1 2 3 3 3 5 5 4 5 5 5 4 3 3
6 5 6 7 8 8 8 7 6 6 7 7 9 10 10 9 10 9 10 9 9 9 8 7 9 6 4 7 6 7 7 5 5 6 6 5 7 7 8 6 6 5 6 5 6 5 5 4 4 4 4 2 3 4 3 4 3 5 4 4 5 5 5 2 3 2 2 2 3 2 2 2 3 2 2 3 3 3 3 4 4 5 4 5 4 4 4
6 7 8 8 7 7 7 6 7 8 9 9 10 10 10 10 10 11 10 10 9 10 9 8 9 3 6 4 4 4 4 4 5 6 7 7 6 5 5 5 5 6 7 7 6 5 5 4 4 3 3 2 3 3 2 1 4 4 4 4 5 4 4 2 2 3 2 3 2 2 3 3 3 3 3 2 4 4 4 3 3 3 3 3 4 5 5
7 7 7 8 10 9 9 9 9 10 10 10 9 9 9 9 10 10 10 10 11 10 9 8 5 7 5 5 6 6 5 5 4 4 6 6 6 5 5 5 4 3 6 5 5 5 5 5 3 4 3 2 3 2 3 1 5 4 4 3 3 4 4 3 4 2 3 2 2 2 3 4 3 2 3 3 3 2 2 4 4 4 3 5 6 5 4
8 8 8 10 9 10 10 11 9 10 10 10 10 10 10 10 10 11 11 11 12 12 11 9 8 8 9 9 6 8 7 6 6 4 2 2 4 5 5 4 4 5 6 5 5 4 4 2 2 1 2 3 3 3 2 4 3 3 4 2 3 4 3 4 3 3 3 3 4 4 3 3 4 4 3 4 3 3 3 4 2 2 4 5 5 5 4
8 9 10 11 12 12 13 12 12 11 12 12 11 11 11 11 11 11 11 12 12 11 11 11 8 8 11 5 3 3 4 6 5 6 3 4 5 6 5 6 7 6 6 5 4 3 3 3 3 2 2 4 3 4 2 2 2 3 4 3 3 3 2 2 2 2 3 4 4 3 3 3 3 3 2 2 3 5 5 3 4 5 5 6 5 5 4
11 11 11 11 11 13 13 13 13 14 13 12 12 12 12 12 12 13 13 13 12 12 13 11 9 9 10 6 8 9 10 8 6 7 5 6 8 6 5 6 6 7 7 6 4 4 4 4 6 6 6 3 3 2 3 2 3 3 4 2 3 3 3 3 2 2 2 3 3 3 4 4 4 3 5 4 4 4 3 2 3 3 8 6 6 5 5
11 12 12 12 12 13 15 13 13 13 13 12 12 12 13 13 14 13 13 13 13 13 12 11 10 11 10 8 7 9 10 8 7 9 7 6 5 4 5 5 5 7 6 6 5 6 5 5 5 5 4 3 2 5 4 3 2 3 2 3 3 4 5 4 3 2 2 2 3 2 3 5 5 5 2 2 4 4 2 2 3 3 1 6 7 5 3
12 13 13 13 13 14 13 13 14 14 15 15 14 13 13 13 13 13 13 13 13 12 11 11 10 7 5 4 4 4 3 8 10 9 8 5 3 3 3 5 6 5 4 4 5 5 5 5 5 2 2 3 2 1 4 6 2 2 2 1 1 2 3 3 3 3 4 4 4 6 4 4 5 4 3 4 3 2 0 3 3 2 4 3 3 2 2
14 14 15 14 13 14 15 14 14 14 15 16 15 14 14 14 15 15 14 13 13 12 11 10 9 8 6 2 5 5 6 8 8 9 7 9 8 6 4 4 5 4 6 7 7 5 4 4 3 4 1 2 3 3 6 1 5 2 4 4 4 4 5 6 5 5 5 3 3 3 3 3 2 2 4 4 2 3 3 4 3 4 5 4 1 3 5
16 15 15 16 16 15 16 15 15 15 15 14 15 16 15 15 15 15 15 15 14 12 10 6 5 4 4 4 4 3 4 6 8 7 8 7 8 8 7 6 6 4 4 1 4 4 3 2 2 2 1 1 1 2 4 2 3 5 4 3 3 3 3 3 4 4 3 3 3 2 2 2 2 2 1 2 2 1 1 0 2 2 3 2 5 2 2
15 15 16 15 14 14 16 16 15 13 13 13 14 14 14 14 15 15 15 15 11 8 5 3 3 1 3 4 5 5 5 7 7 6 6 8 7 5 5 3 1 3 3 3 4 4 3 2 1 1 3 2 3 5 0 6 5 6 3 3 2 2 2 3 2 2 3 3 2 2 3 3 2 3 3 3 4 4 3 1 1 3 4 6 4 1 2
15 15 16 15 14 13 13 14 14 13 12 12 13 14 15 14 12 13 12 12 8 3 5 6 3 3 5 6 9 8 9 8 7 7 6 5 4 4 5 5 5 4 7 8 6 5 4 2 2 3 1 3 3 2 4 5 4 3 3 2 2 4 3 2 2 2 2 2 3 3 4 4 3 4 3 4 5 5 4 3 3 3 4 3 2 1 3
14 14 14 13 11 9 10 11 10 10 11 11 12 12 9 9 9 10 4 2 8 5 1 7 7 6 5 5 6 5 4 7 8 5 2 2 2 4 4 6 5 7 10 6 5 5 4 6 5 4 7 7 5 5 2 3 4 4 5 5 4 5 5 5 5 6 5 5 5 5 4 5 4 4 4 4 4 3 3 4 3 2 1 3 4 4 3
13 12 12 12 12 11 11 10 10 8 8 9 9 9 4 4 5 6 4 5 5 2 5 6 5 5 5 7 6 5 5 5 4 3 3 4 3 4 6 5 5 7 10 6 5 6 5 5 5 7 9 9 8 6 2 4 5 6 6 5 4 5 5 4 4 5 6 4 5 7 7 5 5 5 6 5 5 5 3 2 1 3 4 3 5 6 4
10 9 10 10 11 10 10 9 8 7 8 5 7 6 3 3 4 4 3 5 7 2 5 4 4 5 5 5 4 4 4 4 4 5 5 6 5 5 5 5 3 3 6 6 4 3 6 6 8 10 7 6 5 3 2 3 5 5 4 4 5 5 4 5 5 4 3 3 3 5 4 4 5 4 4 2 4 0 2 3 4 4 4 4 4 4 3
10 8 8 8 7 6 6 6 5 8 7 0 4 4 6 8 8 6 7 6 7 7 4 0 2 3 2 2 3 4 5 3 3 4 3 3 5 5 5 5 2 4 9 7 4 6 6 11 10 9 7 4 1 1 3 3 3 4 4 5 5 5 7 8 9 5 2 3 4 4 4 5 1 1 3 4 3 1 2 2 3 4 5 4 3 4 3
8 7 7 6 5 5 5 3 3 3 6 5 2 3 2 4 3 1 1 5 4 5 6 6 3 2 2 2 3 4 5 5 4 3 4 4 6 7 7 8 9 9 8 7 7 7 8 8 8 7 6 3 3 4 5 3 2 1 3 4 5 6 5 7 8 8 4 2 2 1 3 4 4 3 4 6 4 2 1 2 3 5 5 3 2 4 4
6 6 5 5 4 4 4 3 4 5 4 4 4 2 3 3 3 3 2 1 2 2 2 3 1 4 1 4 4 4 4 4 5 5 5 5 6 5 5 5 6 8 8 7 10 9 12 12 10 8 5 3 4 4 6 3 1 1 1 2 4 5 6 6 8 8 5 4 2 2 3 3 3 3 4 4 3 3 4 5 6 5 4 5 7 4 4
7 7 6 6 5 6 6 5 5 4 5 6 6 4 4 4 3 3 3 3 1 0 0 1 0 1 1 2 3 3 4 2 1 2 4 6 6 6 7 8 10 11 9 7 8 7 8 10 9 7 7 5 4 5 7 1 1 4 0 3 5 5 5 4 4 8 8 4 4 2 2 3 3 4 5 5 6 5 2 4 4 4 5 5 4 4 4
6 5 5 5 5 5 6 6 6 6 6 6 5 4 4 4 3 2 1 1 1 2 2 1 2 2 4 4 3 3 2 3 3 3 5 5 8 6 7 8 7 8 8 6 8 7 9 11 9 7 5 4 4 5 8 6 6 5 5 7 3 2 2 4 3 2 5 5 2 2 1 2 3 4 5 5 5 4 5 7 6 6 8 1 4 5 5
3 4 3 1 2 4 4 3 6 6 5 5 6 4 3 3 4 3 2 2 1 3 3 2 3 3 3 3 3 3 3 4 5 6 5 6 8 6 9 7 8 7 7 5 5 8 7 7 6 6 5 5 5 6 6 8 8 5 4 3 5 5 5 5 6 5 4 4 3 2 3 4 5 5 6 6 6 5 5 5 5 4 4 5 6 5 4
3 1 4 3 2 3 3 1 2 2 2 3 3 4 4 4 3 2 2 4 4 3 3 4 5 6 5 4 4 4 3 5 5 5 6 6 6 6 7 8 7 7 7 7 6 8 7 7 7 8 8 6 5 7 5 6 4 3 4 6 5 7 7 4 4 4 5 5 4 4 5 6 6 6 6 6 5 5 5 5 5 5 4 4 5 6 5
Wind_Direction
223 253 265 266 253 220 232 229 224 223 217 243 256 247 242 219 202 229 172 187 198 182 202 186 201 218 224 195 136 9 18 347 323 277 244 189 191 175 183 180 167 209 218 195 196 195 195 185 180 178 176 174 164 167 165 133 127 129 126 139 137 150 161 167 159 171 180 195 191 193 204 203 212 227 235 239 246 248 255 277 272 274 284 295 298 290 281
216 222 244 250 253 246 221 231 242 237 236 222 229 252 257 243 229 235 183 172 218 222 232 245 259 71 308 27 16 316 277 277 269 266 257 271 233 181 179 186 181 177 220 212 194 193 189 183 178 177 175 170 162 146 131 129 115 116 121 146 156 175 171 171 167 177 188 194 193 196 202 207 214 219 223 218 235 238 242 257 271 261 268 280 284 275 277
233 224 216 234 249 258 253 231 236 235 222 227 226 229 235 249 253 238 222 136 208 221 215 241 263 17 56 98 182 269 321 333 299 301 299 259 244 219 180 181 182 165 176 202 182 181 184 184 180 178 171 166 152 148 143 133 131 132 124 155 175 169 175 171 173 181 187 193 197 200 205 216 215 222 223 229 233 232 231 240 258 270 258 259 273 293 291
246 251 250 235 236 238 248 255 250 249 252 236 231 236 227 235 235 228 334 200 203 210 204 219 165 197 133 179 187 218 197 235 238 245 252 274 286 289 231 173 169 173 171 187 196 187 189 187 179 174 170 170 159 155 143 134 129 156 181 184 168 175 178 173 175 186 189 193 196 201 207 211 215 214 225 231 234 235 233 237 241 247 258 256 261 263 267
239 241 240 234 233 237 247 245 240 238 237 245 247 244 239 233 248 174 221 241 245 25 35 337 314 249 180 198 232 335 309 15 323 304 305 305 292 257 284 202 176 173 185 190 197 194 191 187 180 176 162 153 137 126 130 143 167 179 192 171 168 175 184 179 184 189 191 197 197 203 204 209 208 218 224 230 238 240 242 240 239 246 255 256 258 266 267
239 240 256 279 305 262 247 280 305 305 274 248 253 260 263 245 200 226 119 56 54 66 63 308 323 323 349 359 20 353 302 278 249 249 266 279 271 268 250 244 212 188 191 193 191 190 181 152 182 167 155 144 141 148 153 173 168 188 184 166 170 181 182 186 186 191 197 198 203 202 205 203 208 219 224 235 244 252 254 249 241 237 243 260 264 258 249
250 247 255 262 251 248 269 272 277 279 283 283 274 266 269 278 124 112 135 145 231 39 275 220 97 341 309 281 259 269 270 287 280 287 270 253 268 264 266 249 237 199 184 191 176 183 116 174 202 153 137 139 145 150 153 91 185 204 172 170 173 182 186 188 191 194 196 200 201 202 200 204 210 218 229 230 236 238 246 246 245 234 234 253 270 269 239
257 260 235 239 241 254 312 331 284 259 263 281 308 312 317 287 246 121 177 215 237 228 216 182 216 211 244 228 219 243 253 251 255 254 250 243 234 235 239 239 227 194 180 186 193 177 152 177 179 154 151 145 124 76 76 187 226 208 174 175 180 182 190 191 196 196 196 197 197 196 197 202 210 223 225 228 228 230 234 243 247 257 249 244 254 259 252
245 239 241 250 32 280 252 249 257 278 268 281 281 294 298 323 323 275 153 167 198 206 217 205 262 268 97 344 298 272 256 218 216 239 243 259 238 204 203 229 202 184 170 183 190 173 152 156 149 159 133 89 58 59 175 244 230 201 178 183 186 190 194 195 197 195 195 196 195 195 197 202 215 223 229 229 228 216 238 240 245 244 242 242 239 247 253
273 249 242 242 234 247 236 245 262 268 276 281 278 279 262 352 297 267 225 157 188 228 283 35 323 63 302 264 277 269 307 124 115 234 277 263 233 154 193 181 171 165 170 180 181 176 153 146 147 145 106 96 137 183 211 231 218 191 193 193 195 195 199 199 193 191 190 196 194 195 196 209 217 229 232 243 241 216 230 239 243 243 244 247 245 244 252
255 252 256 243 251 251 269 212 222 260 259 250 266 252 253 127 301 337 228 219 194 200 200 236 199 235 248 272 273 52 317 310 194 208 218 255 151 164 176 179 175 177 177 180 187 157 148 148 154 136 130 154 174 190 206 214 202 194 196 198 197 199 197 193 193 188 191 189 198 195 201 205 213 221 224 228 235 215 227 241 249 255 253 262 264 253 256
221 237 237 241 234 266 258 133 212 224 232 249 267 256 238 81 287 287 254 246 220 179 199 218 253 223 254 253 337 26 324 193 241 103 189 25 104 159 164 175 159 163 165 184 188 159 160 154 151 136 149 164 185 197 202 197 193 195 194 197 192 191 189 188 189 195 191 192 190 200 205 208 201 218 238 238 249 261 264 253 249 248 247 254 257 249 250
224 229 251 259 255 129 172 270 163 167 275 260 238 232 32 216 222 213 234 13 111 111 188 160 247 231 255 317 293 290 322 311 89 95 84 78 313 214 190 168 151 167 166 184 168 164 156 152 132 137 149 168 192 199 187 192 201 197 187 182 184 182 183 185 191 196 194 193 196 195 204 206 208 226 229 254 253 259 277 283 285 275 262 259 267 276 277
236 231 234 242 254 86 299 44 341 338 195 211 213 23 272 318 10 72 212 160 158 217 180 255 256 331 31 287 302 285 269 257 128 171 178 162 211 274 249 145 158 160 170 158 169 151 122 131 134 148 168 189 189 176 185 198 207 198 151 168 175 173 183 187 195 200 196 200 196 193 184 157 204 220 227 249 227 226 219 243 252 260 271 295 325 334 341
243 242 237 232 247 17 282 74 221 49 14 323 353 341 22 356 11 347 37 353 22 348 345 344 346 331 321 323 316 321 335 336 124 144 128 168 201 223 183 161 169 164 159 159 159 143 150 143 82 130 197 169 163 168 197 186 163 171 147 149 160 178 181 189 205 209 207 195 166 143 145 173 195 151 348 320 335 316 339 308 285 316 16 10 317 295 306
295 260 244 355 354 104 33 54 62 68 142 195 139 341 48 341 10 10 11 306 307 288 316 299 298 304 305 304 300 299 288 84 118 137 146 139 180 283 209 178 170 168 148 161 146 136 157 133 159 180 186 164 151 180 216 206 199 182 164 165 153 184 192 196 202 212 204 146 109 145 126 94 84 73 319 5 356 344 12 331 345 354 231 258 254 260 316
45 36 81 345 16 21 73 74 60 86 103 66 45 77 68 352 76 7 324 21 353 1 344 324 306 293 276 281 298 294 280 219 168 163 169 156 148 59 275 209 170 160 156 155 139 139 147 150 179 193 146 122 79 333 24 23 56 50 84 238 49 333 248 212 230 320 26 29 2 317 72 346 124 48 257 236 290 296 327 271 250 255 256 231 233 202 143
117 68 42 37 39 42 55 85 75 60 66 64 56 46 56 31 15 357 8 4 354 344 340 316 313 300 308 301 293 293 290 265 162 163 163 135 88 84 279 238 169 135 126 140 133 132 103 89 84 81 98 107 111 91 94 35 48 66 285 134 159 274 306 338 48 82 160 167 146 45 265 161 127 245 245 263 333 338 332 279 248 217 235 256 251 259 175
219 151 208 104 100 70 61 74 65 59 53 58 52 51 37 43 9 10 42 352 336 294 284 270 273 281 294 299 289 282 281 290 170 149 153 149 129 127 249 241 123 116 112 99 107 112 103 121 119 127 125 114 105 111 122 135 109 44 205 247 201 201 188 117 117 134 102 56 226 208 178 193 217 206 178 167 118 280 251 244 225 231 230 241 162 206 262
290 132 201 205 83 84 59 55 70 56 56 49 47 51 52 38 34 15 7 344 327 343 299 324 307 309 313 335 6 321 345 29 50 60 46 19 359 324 252 238 154 141 135 140 137 161 149 130 120 106 121 122 160 152 139 149 107 173 228 209 234 235 237 215 200 195 190 205 202 199 217 203 344 352 148 148 180 239 271 314 311 309 318 334 331 310 65
88 351 11 49 139 51 63 74 57 47 40 47 55 35 38 31 28 18 10 11 353 341 332 344 345 325 348 65 3 1 66 47 44 37 29 46 16 306 284 290 77 127 145 148 144 135 123 116 114 114 96 114 56 157 193 207 168 192 178 186 216 245 237 235 250 180 145 88 215 243 10 78 71 50 4 354 70 88 40 12 17 12 350 3 19 357 352
7 20 329 345 137 108 327 48 39 39 42 31 53 39 32 28 21 13 8 4 3 347 346 345 339 18 18 33 49 77 96 97 98 93 86 81 56 268 276 307 39 73 86 96 100 101 100 108 109 108 99 83 53 26 45 58 75 79 121 172 212 229 235 236 240 80 51 261 29 4 336 101 113 90 58 53 38 67 84 46 50 53 57 68 21 349 58
171 147 87 42 95 123 74 55 38 19 45 25 25 40 26 21 9 11 3 355 356 352 339 341 347 30 5 11 88 108 110 112 124 149 133 146 193 207 171 153 97 91 92 101 104 104 101 97 109 126 136 133 111 89 63 56 80 107 133 204 222 255 254 312 79 134 150 162 204 156 248 329 95 140 127 56 53 57 73 69 61 65 79 75 56 45 42
51 39 55 36 12 10 354 5 7 17 73 6 17 11 22 7 352 358 351 349 336 332 324 309 330 15 329 339 300 123 137 140 148 158 162 195 205 171 151 127 118 102 98 104 117 126 132 140 144 147 131 109 51 84 104 111 121 108 210 347 222 252 259 226 116 115 161 166 195 200 193 207 215 160 147 117 79 49 53 60 60 62 59 60 68 70 62
97 71 61 21 342 320 313 315 331 301 93 34 2 357 357 352 339 347 326 332 316 311 307 292 271 236 343 277 276 195 175 173 177 175 181 189 167 175 172 155 140 139 148 148 143 138 138 141 138 123 109 99 80 57 90 122 101 103 60 269 279 284 285 239 140 231 250 232 261 318 360 42 10 67 150 168 144 136 65 53 79 80 67 49 52 71 80
40 39 13 336 289 293 294 294 280 35 24 5 1 336 339 321 328 320 314 304 304 296 297 302 292 287 267 263 263 126 188 196 195 88 12 324 253 210 181 157 149 136 141 141 143 140 139 137 131 120 130 146 141 147 135 116 114 116 183 253 264 293 314 22 357 316 260 207 239 277 63 44 38 57 150 192 188 154 156 149 121 91 84 61 49 57 49
353 354 336 332 304 297 10 9 355 350 344 343 326 331 314 318 323 311 299 290 293 305 304 303 292 251 230 210 252 206 104 91 82 88 114 122 291 277 255 152 137 136 139 138 133 141 136 132 127 140 136 118 128 133 125 111 119 136 133 199 236 214 146 194 278 282 279 13 74 86 120 208 111 102 124 143 157 169 181 166 158 144 150 153 215 258 268
355 336 333 317 4 4 359 346 340 330 321 325 325 318 331 316 298 299 301 303 300 300 306 304 301 299 235 184 219 130 119 130 131 147 163 185 198 230 169 148 144 144 139 131 129 124 130 139 149 155 137 114 123 146 158 127 129 143 164 218 238 9 90 122 107 46 35 59 43 48 42 74 335 187 239 218 129 103 199 160 145 141 157 153 159 195 239
275 300 43 26 23 347 317 301 289 297 317 319 320 318 309 314 317 314 312 312 313 312 305 309 312 266 240 209 188 161 146 148 167 174 194 223 237 181 144 143 150 138 131 134 134 143 152 157 159 146 143 146 176 183 158 155 160 176 161 198 115 130 108 106 129 87 85 89 83 95 94 70 38 293 68 30 75 105 97 101 138 143 141 140 145 141 202
38 28 4 348 323 308 312 315 335 332 308 314 323 335 334 329 326 320 321 321 333 325 321 316 311 311 299 230 154 177 175 172 179 189 200 230 175 147 147 138 132 129 142 141 150 157 164 162 167 156 152 179 213 160 220 170 169 124 124 86 76 64 90 89 139 106 78 99 133 162 143 89 101 153 139 115 108 97 99 95 101 126 121 79 64 63 35
12 6 336 327 328 332 314 317 316 312 321 328 329 320 317 318 318 326 317 315 301 297 304 310 306 290 228 247 240 211 211 191 174 181 182 185 167 156 133 150 147 158 168 166 153 164 160 161 175 171 166 220 255 169 184 161 152 121 133 124 110 100 89 15 92 113 175 211 176 196 154 159 143 167 176 156 127 98 103 107 97 81 84 79 71 51 18
355 349 335 320 314 314 324 345 339 323 319 314 307 311 323 321 312 305 305 301 306 309 306 304 309 289 181 197 199 205 213 204 196 177 184 179 159 137 140 156 174 179 171 151 158 167 161 163 170 100 53 312 312 265 198 191 118 138 156 167 143 150 103 316 229 183 195 176 184 187 136 159 157 152 175 170 135 163 148 136 147 132 124 121 86 54 17
349 333 330 344 338 329 322 320 312 311 311 311 312 309 305 302 304 305 310 320 315 309 302 296 277 302 297 199 209 199 173 139 136 144 171 166 152 168 152 188 197 161 138 150 162 161 155 175 179 138 186 249 270 267 264 195 129 139 144 151 160 114 121 100 25 114 137 136 127 110 135 122 134 174 104 108 112 157 180 161 168 163 138 89 79 69 34
357 340 333 325 320 314 309 306 307 307 307 305 305 303 300 309 317 315 310 307 305 307 310 311 327 328 322 295 200 170 170 169 164 158 201 132 166 190 184 170 146 143 145 147 152 153 139 120 90 138 230 210 226 250 174 96 147 146 131 147 143 134 158 148 184 210 135 137 128 132 140 151 148 122 124 137 155 192 205 237 218 138 121 116 120 118 111
335 319 314 310 311 310 311 308 306 303 300 299 301 305 309 305 301 302 307 303 298 296 291 290 294 300 283 290 118 152 186 195 154 125 169 237 268 256 221 164 153 134 133 153 137 119 121 123 69 341 203 237 237 239 192 131 214 182 154 150 151 159 152 147 174 171 142 142 150 155 175 183 145 148 174 229 205 221 229 248 182 158 134 126 124 115 114
330 325 318 313 309 306 302 299 295 295 296 294 292 292 292 293 293 291 290 288 286 282 281 275 259 248 264 248 174 197 209 210 164 149 178 217 210 205 192 162 151 151 158 146 126 135 143 79 56 22 348 280 221 76 70 221 176 122 136 154 159 151 144 175 148 137 149 165 165 176 180 151 145 176 200 202 229 255 246 251 235 143 135 138 134 140 141
322 316 312 310 308 307 305 306 301 296 289 286 283 283 283 284 286 285 282 281 276 273 272 276 278 282 273 270 242 216 213 219 172 152 162 182 225 201 162 164 175 165 168 166 170 164 144 94 67 10 318 284 114 82 35 9 167 121 152 171 159 144 166 170 155 165 154 163 140 168 149 154 190 203 189 217 241 218 204 275 298 275 162 125 144 146 122
301 298 301 299 296 295 295 296 301 300 297 294 292 290 289 289 286 283 282 282 283 278 275 272 274 273 279 297 358 38 160 156 142 144 153 143 109 132 250 216 198 184 209 148 135 121 105 105 125 169 243 90 40 190 109 20 7 185 172 162 128 171 130 88 117 152 159 187 182 157 177 205 219 191 200 232 250 250 268 80 75 103 147 164 172 121 87
301 304 299 298 298 297 293 292 289 289 290 290 289 285 283 283 285 285 283 278 274 272 269 266 253 250 253 195 125 136 139 130 119 125 138 149 173 186 130 64 37 53 90 117 118 107 125 134 185 202 219 134 170 101 85 329 341 297 172 156 164 158 154 165 182 184 202 167 199 194 208 224 242 209 222 227 188 97 72 57 32 15 311 237 117 118 167
308 302 293 296 295 295 293 290 285 286 290 299 303 305 306 304 299 298 297 299 297 286 276 272 265 249 207 177 174 140 106 106 119 124 129 103 76 91 93 79 69 75 76 103 140 116 142 190 198 119 49 272 242 103 129 263 293 277 246 190 208 212 214 194 178 191 173 159 175 145 243 250 233 247 275 329 342 44 300 315 358 357 348 303 202 203 257
298 299 299 292 292 296 293 296 303 309 311 310 307 303 304 302 300 292 285 283 296 302 265 251 248 186 161 195 142 104 121 122 122 116 106 111 115 105 95 83 175 131 166 180 144 136 122 36 353 64 42 350 68 46 92 198 216 269 236 142 213 254 241 221 230 221 210 218 202 228 259 255 254 263 254 280 293 288 274 266 147 222 224 282 12 91 255
296 295 293 294 292 295 300 298 294 294 295 297 298 298 296 302 308 309 321 334 301 317 13 38 64 119 97 102 98 98 91 91 89 100 116 129 169 174 192 175 147 138 118 108 111 121 144 194 78 48 139 129 121 82 22 334 272 245 283 232 218 230 225 220 257 260 253 228 231 239 235 245 238 224 223 235 245 247 255 241 219 250 275 263 272 293 194
303 298 295 294 301 306 296 292 292 295 298 298 299 298 312 333 343 336 6 272 274 281 40 64 74 103 113 124 125 118 119 132 132 133 159 213 198 230 211 143 131 126 125 123 143 157 128 84 101 86 67 68 74 67 360 272 281 287 284 271 219 201 200 203 209 212 207 205 216 226 233 239 239 239 232 227 223 224 228 243 256 249 258 266 254 241 239
300 300 304 310 306 300 295 288 286 290 298 303 304 298 326 14 351 356 319 314 303 192 124 114 90 78 71 69 73 82 92 97 107 140 138 125 126 94 96 129 161 155 159 163 171 183 159 108 98 89 80 74 68 48 354 309 294 286 285 292 289 268 261 251 223 212 200 197 210 211 214 203 218 247 265 248 219 207 220 241 259 243 233 204 234 242 215
312 317 317 319 314 306 299 302 308 315 287 285 309 308 328 32 28 51 343 265 247 132 73 81 119 117 122 152 158 155 142 146 158 168 184 168 159 157 146 124 164 185 207 178 186 145 101 105 100 95 87 77 51 18 332 277 275 281 294 298 292 285 273 264 248 252 292 285 306 327 316 268 271 264 219 89 37 331 187 188 231 243 241 216 222 245 230
340 332 329 328 328 328 323 314 310 285 280 245 285 328 355 5 3 15 27 21 360 337 348 10 175 186 184 171 164 144 148 147 117 66 46 99 147 146 172 164 160 190 183 182 97 102 105 112 106 98 92 80 12 257 255 259 284 320 316 298 294 293 291 300 311 303 220 228 239 244 273 277 222 330 275 243 202 200 249 228 238 222 240 239 210 236 242
340 343 346 338 322 325 329 325 301 329 329 314 327 318 349 86 128 201 66 75 60 344 320 317 315 249 210 206 161 171 172 171 173 162 143 144 145 154 185 165 173 200 180 168 149 140 136 126 119 127 126 145 216 249 243 232 202 204 305 321 315 313 303 302 298 290 274 257 252 302 4 342 320 343 336 12 33 301 42 138 208 230 231 204 232 228 216
340 333 337 342 329 309 315 325 331 336 328 330 319 335 331 348 17 42 71 51 127 178 142 107 317 332 118 161 194 186 172 186 186 175 181 159 160 163 174 169 163 122 89 107 120 126 131 134 138 131 141 231 258 259 268 272 175 168 185 314 320 306 303 299 300 297 268 227 257 270 250 260 274 266 248 247 252 250 229 221 225 218 234 220 220 219 205
10 8 10 2 356 351 356 342 327 330 342 345 339 353 343 341 350 3 353 350 357 315 336 354 306 147 344 279 207 193 188 138 101 170 182 168 177 188 182 150 159 149 131 144 142 144 158 147 137 149 189 227 251 252 256 165 222 243 47 302 286 298 297 303 354 352 320 255 194 200 219 257 269 256 248 240 230 209 186 264 261 216 227 237 223 212 210
0 352 11 1 353 359 353 351 355 1 350 342 347 342 337 330 320 313 290 254 264 248 242 224 226 230 218 205 229 231 192 168 155 195 223 185 196 190 135 145 154 173 189 179 169 152 153 152 159 174 194 212 247 259 279 280 283 353 344 266 200 181 333 19 307 289 331 329 276 199 160 227 242 240 242 249 258 252 209 211 215 102 81 238 244 219 206
298 303 323 359 353 6 353 358 11 3 354 333 322 325 312 302 307 301 287 305 291 262 259 241 245 216 226 245 244 224 206 210 201 188 195 178 217 173 155 164 155 176 208 243 160 153 166 173 177 182 203 222 242 267 297 339 334 298 256 320 308 273 240 256 274 288 292 277 258 252 254 233 233 244 238 228 228 234 240 248 234 193 191 220 226 233 223
299 231 254 243 198 184 231 112 339 281 261 281 321 313 299 306 316 318 322 266 264 294 273 245 256 272 270 243 206 190 206 220 210 197 203 208 207 175 172 167 162 188 200 223 174 160 171 183 179 194 206 223 240 252 209 159 232 254 266 274 281 290 280 259 263 279 275 268 254 246 238 237 236 226 232 237 226 225 234 238 239 249 235 222 229 233 239